Weather in Tiyapino

Russia / Ulyanovsk Oblast     54°08′23″N   46°06′27″E
temp.,
°C
wind,
m/s
gust,
m/s
humid.,
%
clouds,
%
prec.,
mm/h
press.,
hPa
HPBL,
m
23 october, sat
sat2301:00+9wsw613795 0.0 1006465
04:00+8wsw613803 0.0 1007527
07:00+7sw512790 0.0 1008423
10:00+8sw612693 0.0 10091028
13:00+11wsw813466 0.0 10101591
16:00+11wsw611476 0.0 10101628
19:00+7sw4105774 0.0 1011255
22:00+7ssw4116199 0.0 1010276
24 october, sun
sun2401:00+6wsw388250 0.0 1011183
04:00+3wsw38865 0.0 1011173
07:00+2wsw39925 0.0 1011201
10:00+4wsw6108071 0.0 1012572
13:00+5w7968100 0.0 10131062
16:00+6wsw5861100 0.0 10131196
19:00+5sw4864100 0.0 1013476
22:00+4sw487693 0.0 1013376
25 october, mon
mon2501:00+2w478788 0.1 1014342
04:00+3w4786100 0.1 1014545
07:00+2wnw4799100 0.1 1016524
10:00+2nw4897100 0.4 1018534
13:00+2n7970100 0.1 1021982
16:00+3n6105310 0.1 10231191
19:000nnw49640 0.0 1026291
22:00−2nw35730 0.0 102789
26 october, tue
tue2601:00−2wnw2274100 0.0 102815
04:00−2w24736 0.0 102989
07:00−3wsw37785 0.0 1029147
10:00+1wsw6115778 0.0 1028441
13:00+4wsw7104628 0.0 1026760
16:00+4wsw7125194 0.0 1025759
19:00+2wsw6145994 0.0 1025498
22:00+2wsw6146288 0.0 1024431
27 october, wed
wed2701:00+1wsw6136596 0.0 1023375
04:00+1wsw6136577 0.0 1023364
07:000sw51266100 0.0 1022336
10:00+3wsw61455100 0.0 1021494
13:00+6wsw8134499 0.0 1020648
16:00+6sw71444100 0.0 1019731
19:00+5sw71445100 0.0 1018625
22:00+4sw71444100 0.0 1017621